This demonstration page uses our WeatherBlox Daily Observations layout. Learn more.

Left ArrowRight Arrow

Hourly Observations for September 16, 2017

Temp ( °F °C ) Dew Point ( °F °C ) Humidity (%) Winds ( mph kmh ) Pressure ( in mb ) Visibility ( mi km ) Precip ( " mm )
12:15 am 00:15 Clear 64 18 64 18 100 100 Calm 30.12 1020 10 16 0.00 0.00
12:35 am 00:35 Clear 64 18 64 18 100 100 Calm 30.15 1021 10 16 0.00 0.00
12:55 am 00:55 Clear 64 18 64 18 100 100 Calm 30.12 1020 10 16 0.00 0.00
1:15 am 01:15 Clear 64 18 64 18 100 100 WNW 3 6 30.12 1020 10 16 0.00 0.00
1:35 am 01:35 Clear 63 17 63 17 100 100 Calm 30.15 1021 10 16 0.00 0.00
1:55 am 01:55 Clear 64 18 64 18 100 100 SW 3 6 30.15 1021 10 16 0.00 0.00
2:15 am 02:15 Clear 63 17 63 17 100 100 Calm 30.15 1021 10 16 0.00 0.00
2:35 am 02:35 Clear 63 17 63 17 100 100 WNW 5 7 30.15 1021 10 16 0.00 0.00
2:55 am 02:55 Clear 63 17 63 17 100 100 Calm 30.15 1021 10 16 0.00 0.00
3:15 am 03:15 Clear 63 17 63 17 100 100 Calm 30.15 1021 10 16 0.00 0.00
3:35 am 03:35 Clear 63 17 63 17 100 100 Calm 30.15 1021 10 16 0.00 0.00
3:55 am 03:55 Clear 63 17 63 17 100 100 Calm 30.15 1021 10 16 0.00 0.00
4:15 am 04:15 Clear 63 17 63 17 100 100 Calm 30.15 1021 10 16 0.00 0.00
4:35 am 04:35 Clear 63 17 63 17 100 100 Calm 30.15 1021 10 16 0.00 0.00
4:55 am 04:55 Clear 63 17 63 17 100 100 N 3 6 30.15 1021 10 16 0.00 0.00
5:15 am 05:15 Clear 63 17 63 17 100 100 Calm 30.15 1021 10 16 0.00 0.00
5:35 am 05:35 Clear 61 16 61 16 100 100 Calm 30.15 1021 10 16 0.00 0.00
5:55 am 05:55 Clear 61 16 61 16 100 100 Calm 30.15 1021 10 16 0.00 0.00
6:15 am 06:15 Clear 61 16 61 16 100 100 Calm 30.15 1021 10 16 0.00 0.00
6:35 am 06:35 Clear 61 16 61 16 100 100 Calm 30.15 1021 10 16 0.00 0.00
6:55 am 06:55 Sunny 61 16 61 16 100 100 Calm 30.15 1021 10 16 0.00 0.00
7:15 am 07:15 Sunny 61 16 61 16 100 100 Calm 30.18 1022 10 16 0.00 0.00
7:35 am 07:35 Sunny 61 16 61 16 100 100 Calm 30.18 1022 7 11 0.00 0.00
7:55 am 07:55 Sunny 63 17 63 17 100 100 Calm 30.18 1022 10 16 0.00 0.00
8:15 am 08:15 Sunny 66 19 66 19 100 100 Calm 30.18 1022 10 16 0.00 0.00
8:35 am 08:35 Sunny 68 20 66 19 94 94 Calm 30.18 1022 10 16 0.00 0.00
8:55 am 08:55 Sunny 70 21 68 20 94 94 Calm 30.18 1022 10 16 0.00 0.00
9:15 am 09:15 Sunny 72 22 68 20 88 88 N 3 6 30.18 1022 10 16 0.00 0.00
9:35 am 09:35 Sunny 73 23 68 20 83 83 NNW 3 6 30.18 1022 10 16 0.00 0.00
9:50 am 09:50 Sunny 73 23 68 20 83 83 NNW 3 6 30.18 1022 10 16 0.00 0.00
10:15 am 10:15 Sunny 77 25 68 20 74 74 NNE 7 11 30.18 1022 10 16 0.00 0.00
10:35 am 10:35 Sunny 77 25 68 20 74 74 NNE 7 11 30.18 1022 10 16 0.00 0.00
10:55 am 10:55 Sunny 77 25 68 20 74 74 N 3 6 30.18 1022 10 16 0.00 0.00
11:15 am 11:15 Sunny 79 26 68 20 70 70 NNE 5 7 30.18 1022 10 16 0.00 0.00
11:35 am 11:35 Sunny 79 26 68 20 70 70 NNE 7 11 30.18 1022 10 16 0.00 0.00
11:55 am 11:55 Sunny 81 27 68 20 66 66 ENE 6 9 30.18 1022 10 16 0.00 0.00
12:15 pm 12:15 Sunny 81 27 68 20 66 66 Calm 30.18 1022 10 16 0.00 0.00
12:35 pm 12:35 Partly Cloudy 81 27 68 20 66 66 NNE 3 6 30.15 1021 10 16 0.00 0.00
12:55 pm 12:55 Mostly Cloudy 81 27 68 20 66 66 N 3 6 30.15 1021 10 16 0.00 0.00
1:15 pm 13:15 Cloudy 81 27 68 20 66 66 NE 5 7 30.15 1021 10 16 0.00 0.00
1:35 pm 13:35 Partly Cloudy 81 27 68 20 66 66 Calm 30.15 1021 10 16 0.00 0.00
1:55 pm 13:55 Mostly Cloudy 81 27 66 19 62 62 Calm 30.15 1021 10 16 0.00 0.00
2:15 pm 14:15 Mostly Cloudy 82 28 68 20 62 62 NW 3 6 30.15 1021 10 16 0.00 0.00
2:35 pm 14:35 Mostly Cloudy 82 28 68 20 62 62 W 3 6 30.12 1020 10 16 0.00 0.00
2:55 pm 14:55 Cloudy 82 28 68 20 62 62 Calm 30.12 1020 10 16 0.00 0.00
3:15 pm 15:15 Cloudy 82 28 68 20 62 62 W 3 6 30.12 1020 10 16 0.00 0.00
3:35 pm 15:35 Cloudy 82 28 68 20 62 62 W 3 6 30.12 1020 10 16 0.00 0.00
3:55 pm 15:55 Cloudy 82 28 68 20 62 62 W 3 6 30.12 1020 10 16 0.00 0.00
4:15 pm 16:15 Cloudy 82 28 66 19 58 58 W 3 6 30.12 1020 10 16 0.00 0.00
4:35 pm 16:35 Mostly Cloudy 82 28 66 19 58 58 Calm 30.12 1020 10 16 0.00 0.00
4:55 pm 16:55 Partly Cloudy 82 28 66 19 58 58 SW 3 6 30.12 1020 10 16 0.00 0.00
5:15 pm 17:15 Partly Cloudy 84 29 66 19 55 55 WSW 3 6 30.12 1020 10 16 0.00 0.00
5:35 pm 17:35 Partly Cloudy 86 30 66 19 52 52 Calm 30.12 1020 10 16 0.00 0.00
5:55 pm 17:55 Mostly Cloudy 82 28 66 19 58 58 Calm 30.12 1020 10 16 0.00 0.00
6:15 pm 18:15 Cloudy 82 28 68 20 62 62 Calm 30.12 1020 10 16 0.00 0.00
6:35 pm 18:35 Cloudy 81 27 68 20 66 66 E 5 7 30.12 1020 10 16 0.00 0.00
6:55 pm 18:55 Cloudy 81 27 68 20 66 66 ENE 3 6 30.12 1020 10 16 0.00 0.00
7:15 pm 19:15 Cloudy 79 26 68 20 70 70 Calm 30.12 1020 10 16 0.00 0.00
7:35 pm 19:35 Cloudy 79 26 68 20 70 70 E 3 6 30.12 1020 10 16 0.00 0.00
7:55 pm 19:55 Cloudy 79 26 68 20 70 70 SE 3 6 30.12 1020 10 16 0.00 0.00
8:15 pm 20:15 Cloudy 77 25 70 21 79 79 Calm 30.12 1020 10 16 0.00 0.00
8:35 pm 20:35 Cloudy 73 23 70 21 89 89 Calm 30.12 1020 10 16 0.00 0.00
8:55 pm 20:55 Cloudy 73 23 70 21 89 89 Calm 30.12 1020 10 16 0.00 0.00
9:15 pm 21:15 Cloudy 73 23 70 21 89 89 Calm 30.15 1021 10 16 0.00 0.00
9:35 pm 21:35 Cloudy 73 23 70 21 89 89 Calm 30.15 1021 10 16 0.00 0.00
9:55 pm 21:55 Partly Cloudy 72 22 70 21 94 94 Calm 30.15 1021 10 16 0.00 0.00
10:15 pm 22:15 Clear 72 22 70 21 94 94 Calm 30.15 1021 10 16 0.00 0.00
10:35 pm 22:35 Clear 72 22 70 21 94 94 Calm 30.15 1021 10 16 0.00 0.00
10:55 pm 22:55 Clear 70 21 70 21 100 100 Calm 30.15 1021 10 16 0.00 0.00
11:15 pm 23:15 Clear 70 21 70 21 100 100 Calm 30.15 1021 10 16 0.00 0.00
11:35 pm 23:35 Clear 68 20 68 20 100 100 Calm 30.15 1021 10 16 0.00 0.00
11:55 pm 23:55 Clear 68 20 68 20 100 100 Calm 30.15 1021 10 16 0.00 0.00

Powered by AerisWeather